Weather reports worldwide

Advertisment
Logrono/Agoncillo, Spain (8084): temperature & dewpoint: 12.01.2021 08:00:00 - 18.01.2021 08:00:00 (CET)Logrono/Agoncillo, Spain (8084): wind speed: 12.01.2021 08:00:00 - 18.01.2021 08:00:00 (CET)Logrono/Agoncillo, Spain (8084): wind direction: 12.01.2021 08:00:00 - 18.01.2021 08:00:00 (CET)Logrono/Agoncillo, Spain (8084): reduced air pressure: 12.01.2021 08:00:00 - 18.01.2021 08:00:00 (CET)Logrono/Agoncillo, Spain (8084): visibility: 12.01.2021 08:00:00 - 18.01.2021 08:00:00 (CET)
Date & Time tt [°C] td [°C] ff [km/h] ff [kn] dd ppp [hPa] vv [km]
18.01.2021 08:00:00 - - - - - - -
18.01.2021 07:00:00 4,4 3,7 9 5 WSW 1029,6 25
18.01.2021 06:00:00 4,3 3,7 8 4 SW 1029,3 -
18.01.2021 05:00:00 5,6 4,7 8 4 W 1029,3 -
18.01.2021 04:00:00 6,5 5,4 9 5 SW 1029,4 -
18.01.2021 03:00:00 7,2 5,8 9 5 W 1029,3 -
18.01.2021 02:00:00 7,1 5,2 9 5 WSW 1029,6 -
18.01.2021 01:00:00 8,1 5,9 11 6 WSW 1029,8 -
18.01.2021 00:00:00 8,1 6,4 8 4 SW 1030,3 -
17.01.2021 23:00:00 8,7 5,8 8 4 WSW 1029,7 -
17.01.2021 22:00:00 9,0 5,4 9 5 W 1029,7 -
17.01.2021 21:00:00 9,1 5,5 8 4 W 1029,5 -
17.01.2021 20:00:00 9,6 5,2 8 4 WSW 1029,5 -
17.01.2021 19:00:00 10,1 5,3 8 4 WSW 1029,2 30
17.01.2021 18:00:00 10,8 5,3 8 4 W 1028,7 -
17.01.2021 17:00:00 12,0 5,3 11 6 W 1028,3 -
17.01.2021 16:00:00 12,5 4,9 15 8 W 1028,1 -
17.01.2021 15:00:00 12,1 3,5 16 9 W 1028,1 -
17.01.2021 14:00:00 11,4 2,0 18 10 W 1028,8 -
17.01.2021 13:00:00 10,2 2,1 18 10 W 1029,9 -
17.01.2021 12:00:00 8,6 0,1 16 9 W 1031,1 -
17.01.2021 11:00:00 7,0 -0,5 15 8 W 1031,1 -
17.01.2021 10:00:00 4,8 -1,0 13 7 WSW 1031,3 -
17.01.2021 09:00:00 3,8 -1,2 8 4 W 1030,7 -
17.01.2021 08:00:00 3,6 -1,6 9 5 W 1030,3 -
17.01.2021 07:00:00 4,1 -1,9 8 4 W 1029,9 -
17.01.2021 06:00:00 3,9 -2,3 11 6 W 1029,6 -
17.01.2021 05:00:00 4,0 -2,2 13 7 W 1030,0 -
17.01.2021 04:00:00 3,9 -2,7 15 8 W 1030,3 -
17.01.2021 03:00:00 3,9 -2,5 16 9 W 1030,5 -
17.01.2021 02:00:00 3,3 -2,3 9 5 W 1030,7 -
17.01.2021 01:00:00 3,9 -2,6 11 6 W 1030,9 -
17.01.2021 00:00:00 3,5 -2,3 9 5 WNW 1031,1 -
16.01.2021 23:00:00 3,5 -1,9 4 2 W 1031,3 -
16.01.2021 22:00:00 4,3 -0,7 8 4 WNW 1031,0 -
16.01.2021 21:00:00 6,2 -1,0 8 4 W 1030,3 -
16.01.2021 20:00:00 7,5 -0,6 11 6 W 1029,7 -
16.01.2021 19:00:00 8,7 -1,1 9 5 W 1029,2 -
16.01.2021 18:00:00 9,8 -0,2 11 6 W 1028,9 -
16.01.2021 17:00:00 12,3 -0,2 9 5 W 1028,0 -
16.01.2021 16:00:00 12,7 -0,7 13 7 W 1027,7 -
16.01.2021 15:00:00 12,1 -0,2 11 6 W 1027,9 -
16.01.2021 14:00:00 11,0 -0,9 13 7 W 1028,5 -
16.01.2021 13:00:00 9,6 -0,4 13 7 W 1029,6 -
16.01.2021 12:00:00 8,0 1,0 13 7 W 1030,8 -
16.01.2021 11:00:00 6,0 0,8 13 7 W 1031,4 -
16.01.2021 10:00:00 4,3 0,2 13 7 W 1031,6 30
16.01.2021 09:00:00 2,8 0,0 8 4 SW 1031,4 -
16.01.2021 08:00:00 3,1 0,3 13 7 W 1030,9 -
16.01.2021 07:00:00 4,6 0,9 11 6 W 1030,5 -
16.01.2021 06:00:00 6,4 1,4 21 11 W 1029,9 -
16.01.2021 05:00:00 6,4 1,5 16 9 WSW 1030,0 -
16.01.2021 04:00:00 6,6 1,2 22 12 WSW 1029,9 -
16.01.2021 03:00:00 6,3 1,2 15 8 SW 1029,8 -
16.01.2021 02:00:00 6,9 1,5 9 5 WSW 1029,7 -
16.01.2021 01:00:00 7,2 1,5 16 9 W 1029,9 -
16.01.2021 00:00:00 7,0 1,9 15 8 W 1030,2 -
15.01.2021 23:00:00 7,2 2,1 15 8 W 1030,4 -
15.01.2021 22:00:00 7,4 2,1 18 10 W 1030,5 -
15.01.2021 21:00:00 7,2 2,1 15 8 W 1030,3 -
15.01.2021 20:00:00 7,3 2,1 16 9 W 1030,4 -
15.01.2021 19:00:00 7,6 2,1 11 6 W 1030,3 25
15.01.2021 18:00:00 8,6 2,7 11 6 WSW 1029,7 -
15.01.2021 17:00:00 10,2 2,8 13 7 WNW 1029,2 -
15.01.2021 16:00:00 10,6 3,4 18 10 WSW 1028,7 25
15.01.2021 15:00:00 9,7 4,1 9 5 W 1029,4 -
15.01.2021 14:00:00 9,9 3,1 21 11 W 1029,8 -
15.01.2021 13:00:00 8,7 3,6 18 10 W 1030,2 25
15.01.2021 12:00:00 8,0 4,2 13 7 W 1031,3 -
15.01.2021 11:00:00 7,1 4,1 16 9 WSW 1031,3 -
15.01.2021 10:00:00 6,5 3,2 22 12 WSW 1031,0 15
15.01.2021 09:00:00 6,9 3,5 8 4 W 1030,5 -
15.01.2021 08:00:00 7,1 3,0 15 8 W 1029,9 -
15.01.2021 07:00:00 6,9 3,0 18 10 W 1029,6 20
15.01.2021 06:00:00 7,1 3,2 16 9 W 1029,7 -
15.01.2021 05:00:00 7,5 3,0 16 9 W 1029,8 -
15.01.2021 04:00:00 7,6 3,4 15 8 WSW 1029,9 -
15.01.2021 03:00:00 8,2 2,5 18 10 W 1029,4 -
15.01.2021 02:00:00 7,4 4,3 15 8 W 1029,4 -
15.01.2021 01:00:00 7,7 4,3 16 9 WSW 1029,2 -
15.01.2021 00:00:00 7,4 4,7 13 7 WSW 1029,2 -
14.01.2021 23:00:00 7,7 5,2 16 9 WSW 1029,3 -
14.01.2021 22:00:00 8,2 5,1 18 10 W 1028,9 -
14.01.2021 21:00:00 7,0 4,0 13 7 WSW 1029,1 -
14.01.2021 20:00:00 6,6 3,2 8 4 W 1029,0 -
14.01.2021 19:00:00 6,9 2,7 9 5 W 1028,9 20
14.01.2021 18:00:00 7,2 2,4 16 9 W 1028,9 -
14.01.2021 17:00:00 7,8 1,9 13 7 W 1028,8 -
14.01.2021 16:00:00 8,0 2,4 13 7 W 1028,7 25
14.01.2021 15:00:00 9,0 2,5 16 9 W 1028,4 -
14.01.2021 14:00:00 8,8 2,9 16 9 W 1028,6 -
14.01.2021 13:00:00 7,6 2,0 13 7 W 1030,1 25
14.01.2021 12:00:00 5,7 1,3 15 8 W 1031,3 -
14.01.2021 11:00:00 3,8 0,1 13 7 WSW 1031,8 -
14.01.2021 10:00:00 1,8 -0,9 13 7 WSW 1032,0 20
14.01.2021 09:00:00 0,8 -1,0 13 7 W 1031,7 -
14.01.2021 08:00:00 0,8 -1,0 11 6 WSW 1031,5 -
14.01.2021 07:00:00 0,9 -0,9 11 6 WSW 1031,8 20
14.01.2021 06:00:00 1,0 -0,8 9 5 W 1031,9 -
14.01.2021 05:00:00 1,1 -0,7 11 6 WSW 1031,9 -
14.01.2021 04:00:00 1,0 -0,8 11 6 WSW 1032,2 -
14.01.2021 03:00:00 1,3 -0,6 11 6 WSW 1032,3 -
14.01.2021 02:00:00 2,0 -0,1 11 6 WSW 1032,0 -
14.01.2021 01:00:00 2,0 0,1 13 7 WSW 1032,7 -
14.01.2021 00:00:00 2,2 0,3 9 5 WSW 1032,9 -
13.01.2021 23:00:00 3,0 0,7 11 6 W 1032,8 -
13.01.2021 22:00:00 3,5 1,0 11 6 WSW 1032,5 -
13.01.2021 21:00:00 3,2 1,4 9 5 WSW 1032,3 -
13.01.2021 20:00:00 4,5 1,7 8 4 W 1032,0 -
13.01.2021 19:00:00 7,2 2,4 8 4 W 1031,4 25
13.01.2021 18:00:00 8,1 2,7 5 3 W 1031,0 -
13.01.2021 17:00:00 8,4 3,2 9 5 W 1031,0 -
13.01.2021 16:00:00 8,7 3,0 11 6 W 1030,8 25
13.01.2021 15:00:00 8,1 3,0 13 7 W 1030,8 -
13.01.2021 14:00:00 7,3 2,2 11 6 W 1031,6 -
13.01.2021 13:00:00 6,4 1,6 11 6 W 1032,7 25
13.01.2021 12:00:00 5,3 0,9 11 6 W 1033,5 -
13.01.2021 11:00:00 4,4 0,6 11 6 WSW 1033,8 -
13.01.2021 10:00:00 3,9 0,2 11 6 WSW 1033,6 30
13.01.2021 09:00:00 3,3 -0,2 9 5 W 1033,4 -
13.01.2021 08:00:00 3,3 -0,2 9 5 W 1033,1 -
13.01.2021 07:00:00 3,3 -0,3 9 5 W 1032,9 25
13.01.2021 06:00:00 3,1 -0,5 13 7 W 1032,9 -
13.01.2021 05:00:00 2,9 -0,6 13 7 WSW 1032,7 -
13.01.2021 04:00:00 3,0 -0,3 9 5 W 1032,8 -
13.01.2021 03:00:00 3,0 -0,4 9 5 WSW 1032,7 -
13.01.2021 02:00:00 2,9 -0,6 11 6 W 1032,7 -
13.01.2021 01:00:00 3,3 -0,3 11 6 W 1033,3 -
13.01.2021 00:00:00 3,4 -0,3 9 5 W 1033,9 -
12.01.2021 23:00:00 3,5 0,0 9 5 W 1033,5 -
12.01.2021 22:00:00 3,8 -0,2 9 5 W 1032,9 -
12.01.2021 21:00:00 3,8 -0,2 13 7 WSW 1032,6 -
12.01.2021 20:00:00 4,2 0,0 9 5 W 1032,2 -
12.01.2021 19:00:00 4,5 0,1 8 4 W 1031,8 2,0
12.01.2021 18:00:00 5,3 0,3 11 6 WSW 1031,3 -
12.01.2021 17:00:00 7,1 0,8 11 6 W 1030,7 -
12.01.2021 16:00:00 7,3 0,6 16 9 WSW 1030,1 30
12.01.2021 15:00:00 7,3 0,2 16 9 W 1029,9 -
12.01.2021 14:00:00 7,1 0,1 15 8 W 1030,6 -
12.01.2021 13:00:00 6,7 0,1 18 10 WSW 1031,1 30
12.01.2021 12:00:00 5,9 0,1 13 7 W 1031,7 -
12.01.2021 11:00:00 4,3 -0,2 8 4 W 1032,0 -
12.01.2021 10:00:00 3,1 -0,9 11 6 W 1031,7 20
12.01.2021 09:00:00 2,3 -1,4 11 6 W 1031,3 -
12.01.2021 08:00:00 2,0 -2,2 13 7 SW 1030,8 -

tt = temperature
td = dewpoint
ff = wind speed
dd = wind direction
ppp = reduced air pressure
vv = visibility

Next stations